Page, AZ

4:09 PM MST on November 23, 2017 (GMT -0700)
Page Municipal

Weather History for KPGA - August, 2013

Change the Weather History Date:

Thursday, August 15, 2013

  Actual Average Record
Temperature  
Mean Temperature 84 °F -  
Max Temperature 97 °F 92 °F 105 °F (1962)
Min Temperature 70 °F 66 °F 54 °F (1968)
Cooling Degree Days 18    
Growing Degree Days 34 (Base 50)    
Moisture  
Dew Point 36 °F    
Average Humidity 19    
Maximum Humidity 39    
Minimum Humidity 8    
Precipitation  
Precipitation 0.00 in - - ()
Sea Level Pressure  
Sea Level Pressure 29.90 in    
Wind  
Wind Speed 4 mph (SSW)    
Max Wind Speed 16 mph    
Max Gust Speed 26 mph    
Visibility 10 miles    
Events      
Averages and records for this station are not official NWS values.
T = Trace of Precipitation, MM = Missing Value Source: NWS Daily Summary

Daily Weather History Graph

Daily Weather History Graph

Search for Another Location

Airport or City:

Trip Planner

Search our weather history database for the weather conditions in past years. The results will help you decide how hot, cold, wet, or windy it might be!

Date:

Astronomy

Aug. 15, 2013 Rise Set
Actual Time 5:42 AM MST 7:16 PM MST
Civil Twilight 5:15 AM MST 7:44 PM MST
Nautical Twilight 4:42 AM MST 8:17 PM MST
Astronomical Twilight 4:07 AM MST 8:52 PM MST
Moon 2:35 PM MST (8/15) No Moon Set
Length of Visible Light 14h 28m
Length of Day
13h 33m
Waxing Gibbous, 65% of the Moon is Illuminated
Aug 15
Waxing Gibbous
Aug 20
Full
Aug 28
Last Quarter
Sep 5
New
Sep 12
First Quarter

Hourly Weather History & Observations

Time (MST) Temp. Dew Point Humidity Pressure Visibility Wind Dir Wind Speed Gust Speed Precip Events Conditions
12:53 AM 77.0 °F 28.9 °F 17% 29.86 in 10.0 mi SSE 3.5 mph - N/A   Clear
1:53 AM 75.0 °F 30.0 °F 19% 29.86 in 10.0 mi Calm Calm - N/A   Clear
2:53 AM 73.0 °F 28.9 °F 20% 29.87 in 10.0 mi Calm Calm - N/A   Clear
3:53 AM 71.1 °F 30.0 °F 22% 29.88 in 10.0 mi WSW 3.5 mph - N/A   Clear
4:53 AM 72.0 °F 27.0 °F 19% 29.89 in 10.0 mi Calm Calm - N/A   Clear
5:53 AM 70.0 °F 28.9 °F 22% 29.91 in 10.0 mi SE 3.5 mph - N/A   Clear
6:53 AM 75.0 °F 34.0 °F 22% 29.93 in 10.0 mi Calm Calm - N/A   Clear
7:53 AM 79.0 °F 32.0 °F 18% 29.94 in 10.0 mi Calm Calm - N/A   Clear
8:53 AM 82.0 °F 27.0 °F 13% 29.96 in 10.0 mi WSW 5.8 mph - N/A   Clear
9:53 AM 87.1 °F 30.0 °F 13% 29.95 in 10.0 mi Variable 3.5 mph - N/A   Clear
10:53 AM 90.0 °F 28.0 °F 11% 29.94 in 10.0 mi ENE 4.6 mph - N/A   Clear
11:53 AM 93.0 °F 21.9 °F 8% 29.92 in 10.0 mi Variable 4.6 mph - N/A   Clear
12:53 PM 93.9 °F 25.0 °F 8% 29.91 in 10.0 mi Variable 4.6 mph - N/A   Clear
1:53 PM 96.1 °F 30.0 °F 10% 29.88 in 10.0 mi Variable 3.5 mph - N/A   Clear
2:53 PM 95.0 °F 39.0 °F 14% 29.87 in 10.0 mi SW 10.4 mph 18.4 mph N/A   Clear
3:53 PM 93.9 °F 37.0 °F 14% 29.87 in 10.0 mi Variable 3.5 mph - N/A   Clear
4:53 PM 93.0 °F 43.0 °F 18% 29.87 in 10.0 mi South 15.0 mph 26.5 mph N/A   Clear
5:53 PM 89.1 °F 46.0 °F 22% 29.88 in 10.0 mi SSW 16.1 mph 26.5 mph N/A   Clear
6:53 PM 88.0 °F 48.0 °F 25% 29.87 in 10.0 mi SW 9.2 mph 21.9 mph N/A   Clear
7:53 PM 86.0 °F 48.9 °F 28% 29.88 in 10.0 mi SW 9.2 mph 17.3 mph N/A   Clear
8:53 PM 84.0 °F 48.0 °F 28% 29.90 in 10.0 mi Calm Calm - N/A   Clear
10:53 PM 81.0 °F 50.0 °F 34% 29.90 in 10.0 mi Calm Calm - N/A   Clear
11:53 PM 78.1 °F 51.1 °F 39% 29.91 in 10.0 mi Calm Calm - N/A   Clear